QPF
0.01 0.01 0.01 0.01 0.01 0.00 0.00 0.00 0.00 0.00 0.00 0.00 0.00 0.00 0.00 0.00 0.00 0.00 0.00 0.00 0.01 0.01 0.02 0.02 0.03 0.03 0.02 0.03 0.04 0.05 0.05 0.06 0.07 0.08 0.08 0.07 0.07 0.07 0.06 0.05 0.05 0.09 0.11
0.01 0.00 0.00 0.00 0.00 0.00 0.00 0.00 0.00 0.00 0.00 0.00 0.00 0.00 0.00 0.00 0.00 0.00 0.00 0.00 0.00 0.00 0.00 0.00 0.01 0.02 0.03 0.04 0.06 0.07 0.05 0.05 0.07 0.09 0.09 0.06 0.04 0.05 0.05 0.05 0.05 0.06 0.11
0.01 0.00 0.00 0.00 0.00 0.00 0.00 0.00 0.00 0.00 0.00 0.00 0.00 0.00 0.00 0.00 0.00 0.00 0.00 0.00 0.00 0.00 0.00 0.00 0.01 0.01 0.03 0.04 0.06 0.08 0.07 0.06 0.06 0.09 0.11 0.08 0.04 0.04 0.06 0.07 0.07 0.07 0.09
0.01 0.00 0.00 0.00 0.00 0.00 0.00 0.00 0.00 0.00 0.00 0.00 0.00 0.00 0.00 0.00 0.00 0.00 0.00 0.00 0.00 0.00 0.00 0.00 0.00 0.00 0.01 0.02 0.04 0.07 0.09 0.08 0.07 0.08 0.09 0.09 0.07 0.05 0.04 0.07 0.08 0.07 0.08
0.00 0.00 0.00 0.00 0.00 0.00 0.00 0.00 0.00 0.00 0.00 0.00 0.00 0.00 0.00 0.00 0.00 0.00 0.00 0.00 0.00 0.00 0.00 0.00 0.00 0.00 0.00 0.01 0.01 0.04 0.07 0.10 0.11 0.10 0.09 0.09 0.09 0.07 0.04 0.03 0.04 0.05 0.04
0.00 0.00 0.00 0.00 0.00 0.00 0.00 0.00 0.00 0.00 0.00 0.00 0.00 0.00 0.00 0.00 0.00 0.00 0.00 0.00 0.00 0.00 0.00 0.00 0.00 0.00 0.00 0.00 0.00 0.01 0.02 0.06 0.09 0.10 0.11 0.12 0.12 0.09 0.06 0.02 0.01 0.02 0.03
0.00 0.00 0.00 0.00 0.00 0.00 0.00 0.00 0.00 0.00 0.00 0.00 0.00 0.00 0.00 0.00 0.00 0.00 0.00 0.00 0.00 0.00 0.00 0.00 0.00 0.00 0.00 0.00 0.00 0.00 0.00 0.01 0.03 0.06 0.08 0.11 0.10 0.11 0.11 0.08 0.04 0.02 0.03
0.00 0.00 0.00 0.00 0.00 0.00 0.00 0.00 0.00 0.00 0.00 0.00 0.00 0.00 0.00 0.00 0.00 0.00 0.00 0.00 0.00 0.00 0.00 0.00 0.00 0.00 0.00 0.00 0.00 0.00 0.00 0.00 0.00 0.02 0.05 0.07 0.05 0.09 0.14 0.13 0.12 0.08 0.05
0.00 0.00 0.00 0.00 0.00 0.00 0.00 0.00 0.00 0.00 0.00 0.00 0.00 0.00 0.00 0.00 0.00 0.00 0.00 0.00 0.00 0.00 0.00 0.00 0.00 0.00 0.00 0.00 0.00 0.00 0.00 0.00 0.00 0.00 0.01 0.03 0.04 0.05 0.08 0.12 0.16 0.15 0.10
0.00 0.00 0.00 0.00 0.00 0.00 0.00 0.00 0.00 0.00 0.00 0.00 0.00 0.00 0.00 0.00 0.00 0.00 0.00 0.00 0.00 0.00 0.00 0.00 0.00 0.00 0.00 0.00 0.00 0.00 0.00 0.00 0.00 0.00 0.00 0.01 0.02 0.04 0.05 0.09 0.14 0.17 0.15
0.00 0.00 0.00 0.00 0.00 0.00 0.00 0.00 0.00 0.00 0.00 0.00 0.00 0.00 0.00 0.00 0.00 0.00 0.00 0.00 0.00 0.00 0.00 0.00 0.00 0.00 0.00 0.00 0.00 0.00 0.00 0.00 0.00 0.00 0.00 0.00 0.01 0.03 0.04 0.07 0.10 0.14 0.16
0.00 0.00 0.00 0.00 0.00 0.00 0.00 0.00 0.00 0.00 0.00 0.00 0.00 0.00 0.00 0.00 0.00 0.00 0.00 0.00 0.00 0.00 0.00 0.00 0.00 0.00 0.00 0.00 0.00 0.00 0.00 0.01 0.00 0.00 0.00 0.00 0.00 0.01 0.03 0.05 0.08 0.10 0.13
0.00 0.00 0.00 0.00 0.00 0.00 0.00 0.00 0.00 0.00 0.00 0.00 0.00 0.00 0.00 0.00 0.00 0.00 0.00 0.00 0.00 0.00 0.00 0.00 0.00 0.00 0.00 0.00 0.00 0.00 0.00 0.01 0.00 0.01 0.01 0.00 0.00 0.00 0.01 0.03 0.05 0.07 0.10
0.00 0.00 0.00 0.00 0.00 0.00 0.00 0.00 0.00 0.00 0.00 0.00 0.00 0.00 0.00 0.00 0.00 0.00 0.00 0.00 0.00 0.00 0.00 0.00 0.00 0.00 0.00 0.00 0.00 0.00 0.00 0.00 0.00 0.00 0.01 0.01 0.01 0.01 0.01 0.01 0.03 0.05 0.09
0.00 0.00 0.00 0.00 0.00 0.00 0.00 0.00 0.00 0.00 0.00 0.00 0.00 0.00 0.00 0.00 0.00 0.00 0.00 0.00 0.00 0.00 0.00 0.00 0.00 0.00 0.00 0.00 0.00 0.00 0.00 0.00 0.01 0.01 0.01 0.01 0.02 0.02 0.01 0.01 0.02 0.04 0.07
0.00 0.00 0.00 0.00 0.00 0.00 0.00 0.00 0.00 0.00 0.00 0.00 0.00 0.00 0.00 0.00 0.00 0.00 0.00 0.00 0.00 0.00 0.00 0.00 0.00 0.00 0.00 0.00 0.00 0.00 0.00 0.00 0.01 0.01 0.01 0.01 0.02 0.03 0.02 0.02 0.01 0.03 0.05
0.00 0.00 0.00 0.00 0.00 0.00 0.00 0.00 0.00 0.00 0.00 0.00 0.00 0.00 0.00 0.00 0.00 0.00 0.00 0.00 0.00 0.00 0.00 0.00 0.00 0.00 0.00 0.00 0.00 0.00 0.00 0.00 0.00 0.01 0.01 0.01 0.01 0.02 0.03 0.03 0.03 0.02 0.03
0.00 0.00 0.00 0.00 0.00 0.00 0.00 0.00 0.00 0.00 0.00 0.00 0.00 0.00 0.00 0.00 0.00 0.00 0.00 0.00 0.00 0.00 0.00 0.00 0.00 0.00 0.00 0.00 0.00 0.00 0.00 0.00 0.00 0.01 0.02 0.02 0.02 0.03 0.06 0.06 0.04 0.02 0.02
0.00 0.00 0.00 0.00 0.00 0.00 0.00 0.00 0.00 0.00 0.00 0.00 0.00 0.00 0.00 0.00 0.00 0.00 0.00 0.00 0.01 0.00 0.00 0.00 0.01 0.01 0.00 0.01 0.01 0.01 0.01 0.01 0.01 0.01 0.02 0.04 0.04 0.04 0.08 0.10 0.07 0.04 0.02
0.00 0.00 0.00 0.00 0.00 0.00 0.00 0.00 0.00 0.00 0.00 0.00 0.00 0.00 0.00 0.00 0.00 0.00 0.00 0.01 0.01 0.01 0.01 0.01 0.01 0.02 0.01 0.01 0.01 0.01 0.01 0.01 0.02 0.02 0.03 0.06 0.08 0.07 0.08 0.11 0.10 0.06 0.03
0.00 0.00 0.00 0.00 0.00 0.00 0.00 0.00 0.00 0.00 0.00 0.00 0.00 0.00 0.00 0.00 0.00 0.00 0.00 0.01 0.01 0.01 0.01 0.02 0.02 0.02 0.02 0.02 0.01 0.01 0.01 0.01 0.02 0.03 0.04 0.07 0.09 0.10 0.09 0.11 0.11 0.08 0.07
0.00 0.00 0.00 0.00 0.00 0.00 0.00 0.00 0.00 0.00 0.00 0.00 0.00 0.00 0.00 0.00 0.00 0.00 0.00 0.01 0.01 0.02 0.02 0.01 0.01 0.02 0.02 0.02 0.01 0.01 0.01 0.02 0.02 0.04 0.07 0.10 0.10 0.13 0.12 0.11 0.11 0.11 0.10
0.00 0.00 0.00 0.00 0.00 0.00 0.00 0.00 0.00 0.00 0.00 0.00 0.00 0.00 0.00 0.00 0.00 0.00 0.01 0.01 0.02 0.02 0.01 0.01 0.01 0.01 0.02 0.02 0.02 0.01 0.01 0.02 0.03 0.07 0.10 0.13 0.13 0.14 0.14 0.12 0.13 0.12 0.10
0.00 0.00 0.00 0.00 0.00 0.00 0.00 0.00 0.00 0.00 0.00 0.00 0.00 0.00 0.00 0.00 0.00 0.00 0.01 0.01 0.01 0.01 0.01 0.01 0.01 0.01 0.02 0.02 0.02 0.02 0.01 0.02 0.03 0.08 0.11 0.13 0.13 0.13 0.13 0.12 0.14 0.11 0.09
0.00 0.00 0.00 0.00 0.00 0.00 0.00 0.00 0.00 0.00 0.00 0.00 0.00 0.00 0.00 0.00 0.00 0.00 0.01 0.01 0.01 0.01 0.01 0.00 0.00 0.00 0.01 0.01 0.01 0.01 0.02 0.03 0.04 0.06 0.08 0.11 0.12 0.12 0.11 0.10 0.10 0.08 0.07
0.00 0.00 0.00 0.00 0.00 0.00 0.00 0.00 0.00 0.00 0.00 0.00 0.00 0.00 0.00 0.00 0.00 0.00 0.01 0.01 0.01 0.01 0.00 0.00 0.00 0.00 0.00 0.00 0.00 0.00 0.01 0.01 0.02 0.04 0.08 0.09 0.10 0.10 0.09 0.07 0.06 0.05 0.05
MSLP
1015.13 1014.91 1014.73 1014.57 1014.40 1014.22 1014.04 1013.89 1013.81 1013.82 1013.92 1014.08 1014.27 1014.41 1014.47 1014.39 1014.18 1013.84 1013.43 1013.01 1012.64 1012.36 1012.21 1012.17 1012.24 1012.35 1012.45 1012.52 1012.52 1012.46 1012.35 1012.23 1012.13 1012.06 1012.04 1012.04 1012.05 1012.02 1011.93 1011.78 1011.57 1011.34 1011.14
1014.93 1014.74 1014.59 1014.44 1014.28 1014.09 1013.92 1013.79 1013.76 1013.83 1014.01 1014.26 1014.51 1014.71 1014.78 1014.70 1014.45 1014.07 1013.60 1013.12 1012.69 1012.37 1012.19 1012.14 1012.18 1012.25 1012.32 1012.35 1012.30 1012.19 1012.04 1011.88 1011.76 1011.68 1011.66 1011.66 1011.67 1011.64 1011.54 1011.37 1011.14 1010.88 1010.64
1014.57 1014.47 1014.39 1014.30 1014.17 1014.01 1013.85 1013.74 1013.74 1013.85 1014.07 1014.36 1014.65 1014.88 1014.97 1014.89 1014.63 1014.22 1013.72 1013.21 1012.75 1012.41 1012.19 1012.11 1012.11 1012.14 1012.16 1012.13 1012.03 1011.88 1011.70 1011.52 1011.40 1011.33 1011.32 1011.34 1011.37 1011.35 1011.25 1011.07 1010.82 1010.53 1010.25
1014.16 1014.16 1014.19 1014.19 1014.12 1014.00 1013.86 1013.76 1013.76 1013.87 1014.09 1014.38 1014.68 1014.92 1015.02 1014.94 1014.69 1014.28 1013.79 1013.28 1012.82 1012.46 1012.22 1012.10 1012.05 1012.03 1012.00 1011.91 1011.77 1011.58 1011.38 1011.20 1011.08 1011.04 1011.06 1011.11 1011.16 1011.16 1011.07 1010.89 1010.62 1010.31 1009.99
1013.79 1013.91 1014.06 1014.14 1014.15 1014.07 1013.95 1013.84 1013.81 1013.89 1014.07 1014.33 1014.60 1014.82 1014.92 1014.86 1014.63 1014.26 1013.80 1013.32 1012.88 1012.52 1012.27 1012.12 1012.03 1011.95 1011.86 1011.72 1011.53 1011.32 1011.11 1010.94 1010.84 1010.82 1010.87 1010.96 1011.03 1011.05 1010.98 1010.80 1010.53 1010.20 1009.85
1013.53 1013.77 1014.01 1014.19 1014.25 1014.21 1014.09 1013.96 1013.88 1013.90 1014.02 1014.21 1014.43 1014.62 1014.71 1014.67 1014.47 1014.15 1013.75 1013.32 1012.92 1012.59 1012.34 1012.16 1012.03 1011.90 1011.76 1011.57 1011.35 1011.12 1010.91 1010.75 1010.67 1010.68 1010.75 1010.86 1010.95 1010.99 1010.93 1010.76 1010.49 1010.15 1009.79
1013.43 1013.74 1014.06 1014.30 1014.41 1014.38 1014.25 1014.09 1013.95 1013.89 1013.92 1014.04 1014.20 1014.34 1014.42 1014.39 1014.24 1013.98 1013.65 1013.29 1012.95 1012.65 1012.41 1012.21 1012.05 1011.88 1011.69 1011.47 1011.22 1010.98 1010.77 1010.62 1010.55 1010.57 1010.66 1010.77 1010.88 1010.92 1010.87 1010.72 1010.46 1010.14 1009.78
1013.47 1013.82 1014.18 1014.45 1014.58 1014.55 1014.40 1014.20 1014.00 1013.86 1013.80 1013.83 1013.92 1014.02 1014.08 1014.06 1013.95 1013.76 1013.50 1013.21 1012.93 1012.67 1012.44 1012.24 1012.06 1011.86 1011.64 1011.39 1011.13 1010.88 1010.66 1010.52 1010.46 1010.47 1010.56 1010.66 1010.76 1010.80 1010.76 1010.62 1010.40 1010.10 1009.77
1013.61 1013.97 1014.32 1014.59 1014.71 1014.66 1014.49 1014.24 1013.99 1013.78 1013.65 1013.60 1013.62 1013.67 1013.71 1013.70 1013.63 1013.49 1013.30 1013.07 1012.84 1012.62 1012.42 1012.22 1012.02 1011.81 1011.57 1011.30 1011.03 1010.78 1010.56 1010.41 1010.34 1010.35 1010.41 1010.49 1010.57 1010.60 1010.56 1010.44 1010.25 1010.00 1009.72
1013.79 1014.11 1014.43 1014.66 1014.75 1014.68 1014.48 1014.20 1013.91 1013.65 1013.46 1013.36 1013.32 1013.33 1013.34 1013.33 1013.28 1013.17 1013.03 1012.86 1012.67 1012.48 1012.30 1012.11 1011.90 1011.68 1011.43 1011.17 1010.89 1010.64 1010.43 1010.28 1010.19 1010.17 1010.20 1010.25 1010.29 1010.30 1010.26 1010.16 1010.01 1009.82 1009.61
1013.94 1014.20 1014.46 1014.63 1014.67 1014.56 1014.34 1014.05 1013.74 1013.46 1013.24 1013.10 1013.02 1012.99 1012.98 1012.96 1012.90 1012.82 1012.70 1012.55 1012.39 1012.23 1012.06 1011.87 1011.67 1011.45 1011.21 1010.95 1010.69 1010.44 1010.23 1010.07 1009.97 1009.92 1009.91 1009.92 1009.93 1009.92 1009.87 1009.79 1009.67 1009.54 1009.42
1014.01 1014.20 1014.37 1014.47 1014.45 1014.31 1014.07 1013.78 1013.47 1013.19 1012.97 1012.82 1012.72 1012.66 1012.62 1012.57 1012.51 1012.42 1012.30 1012.17 1012.02 1011.86 1011.69 1011.52 1011.32 1011.11 1010.88 1010.63 1010.39 1010.15 1009.95 1009.79 1009.67 1009.60 1009.55 1009.53 1009.50 1009.46 1009.41 1009.34 1009.26 1009.18 1009.13
1013.98 1014.09 1014.17 1014.18 1014.10 1013.93 1013.68 1013.40 1013.12 1012.87 1012.67 1012.51 1012.41 1012.33 1012.26 1012.19 1012.09 1011.98 1011.85 1011.70 1011.55 1011.39 1011.22 1011.05 1010.86 1010.65 1010.43 1010.21 1009.98 1009.76 1009.57 1009.41 1009.29 1009.20 1009.13 1009.07 1009.02 1008.96 1008.90 1008.83 1008.78 1008.75 1008.75
1013.86 1013.87 1013.86 1013.79 1013.65 1013.45 1013.21 1012.95 1012.71 1012.50 1012.33 1012.19 1012.09 1012.00 1011.90 1011.79 1011.67 1011.52 1011.36 1011.19 1011.01 1010.84 1010.66 1010.48 1010.29 1010.09 1009.88 1009.67 1009.46 1009.26 1009.08 1008.93 1008.81 1008.71 1008.63 1008.56 1008.49 1008.42 1008.35 1008.29 1008.26 1008.25 1008.28
1013.65 1013.58 1013.48 1013.32 1013.13 1012.91 1012.68 1012.46 1012.27 1012.11 1011.98 1011.87 1011.77 1011.67 1011.55 1011.40 1011.23 1011.04 1010.84 1010.64 1010.43 1010.23 1010.04 1009.84 1009.65 1009.44 1009.23 1009.02 1008.82 1008.63 1008.46 1008.32 1008.21 1008.11 1008.04 1007.97 1007.90 1007.83 1007.77 1007.72 1007.69 1007.70 1007.75
1013.39 1013.24 1013.05 1012.83 1012.60 1012.36 1012.15 1011.97 1011.83 1011.72 1011.63 1011.55 1011.46 1011.35 1011.20 1011.02 1010.80 1010.57 1010.32 1010.07 1009.83 1009.60 1009.37 1009.15 1008.94 1008.72 1008.49 1008.28 1008.07 1007.88 1007.72 1007.58 1007.48 1007.39 1007.33 1007.28 1007.23 1007.18 1007.14 1007.10 1007.09 1007.10 1007.16
1013.08 1012.86 1012.61 1012.34 1012.08 1011.84 1011.65 1011.52 1011.42 1011.36 1011.32 1011.26 1011.18 1011.05 1010.87 1010.65 1010.39 1010.10 1009.80 1009.51 1009.22 1008.95 1008.69 1008.43 1008.18 1007.93 1007.68 1007.44 1007.22 1007.01 1006.84 1006.71 1006.61 1006.54 1006.50 1006.48 1006.46 1006.45 1006.44 1006.44 1006.44 1006.47 1006.53
1012.72 1012.45 1012.16 1011.87 1011.60 1011.38 1011.23 1011.13 1011.08 1011.07 1011.05 1011.01 1010.92 1010.77 1010.57 1010.30 1009.99 1009.65 1009.30 1008.95 1008.62 1008.30 1007.99 1007.70 1007.40 1007.11 1006.82 1006.54 1006.28 1006.05 1005.86 1005.72 1005.63 1005.57 1005.56 1005.57 1005.60 1005.63 1005.67 1005.71 1005.76 1005.81 1005.89
1012.31 1012.03 1011.73 1011.44 1011.19 1011.00 1010.88 1010.83 1010.82 1010.84 1010.84 1010.80 1010.69 1010.52 1010.27 1009.95 1009.59 1009.20 1008.80 1008.40 1008.02 1007.65 1007.30 1006.96 1006.62 1006.28 1005.95 1005.62 1005.32 1005.06 1004.84 1004.68 1004.57 1004.53 1004.54 1004.58 1004.66 1004.75 1004.85 1004.94 1005.04 1005.13 1005.23
1011.84 1011.58 1011.31 1011.05 1010.84 1010.70 1010.63 1010.61 1010.64 1010.67 1010.67 1010.61 1010.49 1010.27 1009.98 1009.61 1009.19 1008.74 1008.29 1007.84 1007.41 1007.00 1006.61 1006.23 1005.84 1005.47 1005.09 1004.73 1004.39 1004.09 1003.84 1003.65 1003.53 1003.49 1003.51 1003.58 1003.69 1003.83 1003.99 1004.14 1004.30 1004.44 1004.59
1011.32 1011.11 1010.89 1010.70 1010.55 1010.46 1010.44 1010.46 1010.50 1010.53 1010.52 1010.44 1010.28 1010.02 1009.67 1009.24 1008.77 1008.27 1007.76 1007.27 1006.80 1006.36 1005.93 1005.52 1005.11 1004.71 1004.31 1003.92 1003.55 1003.22 1002.94 1002.73 1002.59 1002.54 1002.55 1002.63 1002.77 1002.94 1003.14 1003.35 1003.56 1003.76 1003.95
1010.76 1010.63 1010.49 1010.37 1010.29 1010.27 1010.29 1010.34 1010.39 1010.41 1010.38 1010.26 1010.04 1009.73 1009.32 1008.84 1008.31 1007.76 1007.21 1006.68 1006.19 1005.72 1005.27 1004.85 1004.44 1004.03 1003.63 1003.24 1002.86 1002.52 1002.23 1002.00 1001.84 1001.76 1001.75 1001.83 1001.96 1002.14 1002.37 1002.61 1002.86 1003.11 1003.35
1010.17 1010.13 1010.09 1010.06 1010.06 1010.09 1010.15 1010.22 1010.27 1010.27 1010.20 1010.03 1009.76 1009.39 1008.92 1008.39 1007.81 1007.22 1006.64 1006.08 1005.57 1005.09 1004.65 1004.24 1003.85 1003.46 1003.09 1002.72 1002.36 1002.03 1001.74 1001.50 1001.32 1001.21 1001.18 1001.22 1001.32 1001.49 1001.70 1001.95 1002.22 1002.49 1002.77
1009.58 1009.64 1009.69 1009.75 1009.82 1009.91 1010.00 1010.07 1010.10 1010.08 1009.96 1009.74 1009.42 1008.99 1008.48 1007.90 1007.28 1006.66 1006.05 1005.48 1004.96 1004.49 1004.07 1003.69 1003.34 1003.00 1002.68 1002.37 1002.06 1001.77 1001.49 1001.26 1001.06 1000.93 1000.85 1000.84 1000.89 1001.01 1001.19 1001.41 1001.66 1001.95 1002.25
1009.01 1009.17 1009.31 1009.44 1009.57 1009.69 1009.80 1009.87 1009.88 1009.81 1009.65 1009.39 1009.02 1008.55 1007.99 1007.38 1006.73 1006.08 1005.46 1004.89 1004.37 1003.92 1003.53 1003.19 1002.90 1002.63 1002.39 1002.15 1001.91 1001.67 1001.44 1001.23 1001.03 1000.87 1000.75 1000.68 1000.67 1000.72 1000.83 1001.00 1001.22 1001.49 1001.79
1008.49 1008.72 1008.93 1009.12 1009.28 1009.43 1009.53 1009.59 1009.58 1009.48 1009.28 1008.98 1008.57 1008.07 1007.49 1006.85 1006.19 1005.53 1004.90 1004.33 1003.82 1003.39 1003.03 1002.74 1002.51 1002.32 1002.16 1002.00 1001.85 1001.68 1001.51 1001.33 1001.14 1000.97 1000.81 1000.68 1000.60 1000.57 1000.61 1000.71 1000.88 1001.11 1001.40
Thickness
5738 5738 5738 5738 5735 5732 5728 5725 5722 5719 5717 5712 5708 5704 5701 5702 5702 5701 5702 5702 5702 5701 5701 5700 5699 5698 5698 5697 5698 5698 5698 5697 5698 5696 5697 5702 5707 5710 5713 5717 5718 5719 5721
5733 5734 5733 5732 5730 5726 5723 5720 5716 5713 5709 5705 5701 5697 5695 5693 5693 5691 5691 5691 5690 5690 5691 5691 5690 5690 5689 5690 5690 5690 5690 5691 5693 5690 5688 5689 5697 5706 5714 5716 5717 5719 5720
5730 5731 5730 5728 5726 5722 5720 5716 5711 5707 5703 5700 5695 5691 5687 5684 5682 5681 5680 5680 5680 5680 5680 5681 5681 5681 5680 5680 5681 5683 5682 5682 5686 5687 5685 5682 5684 5694 5705 5711 5715 5717 5718
5731 5729 5728 5725 5722 5719 5716 5711 5705 5700 5697 5693 5687 5682 5676 5672 5672 5671 5670 5670 5670 5670 5671 5672 5673 5672 5672 5671 5672 5674 5675 5675 5676 5679 5682 5683 5685 5684 5689 5700 5708 5712 5715
5730 5728 5726 5722 5719 5715 5710 5704 5698 5694 5690 5686 5681 5676 5671 5667 5665 5664 5662 5660 5660 5660 5660 5661 5663 5663 5662 5663 5663 5665 5666 5667 5668 5669 5672 5675 5678 5681 5680 5684 5694 5702 5709
5728 5725 5722 5718 5712 5708 5702 5697 5691 5687 5683 5679 5675 5670 5665 5661 5657 5655 5652 5650 5650 5650 5650 5650 5651 5652 5652 5652 5653 5655 5657 5658 5659 5661 5664 5666 5668 5671 5674 5676 5682 5689 5699
5721 5716 5713 5709 5704 5700 5695 5689 5684 5679 5676 5672 5667 5663 5659 5654 5650 5646 5643 5641 5639 5638 5638 5638 5639 5640 5641 5643 5644 5645 5647 5649 5651 5652 5655 5659 5662 5665 5668 5670 5674 5680 5689
5715 5711 5707 5703 5698 5694 5689 5683 5677 5672 5669 5665 5660 5656 5652 5647 5643 5640 5637 5634 5631 5630 5629 5628 5628 5629 5630 5632 5634 5635 5636 5639 5642 5645 5647 5650 5654 5658 5661 5663 5665 5668 5676
5710 5706 5702 5698 5694 5689 5684 5678 5672 5667 5663 5658 5654 5649 5645 5641 5636 5633 5630 5627 5625 5623 5621 5620 5618 5618 5619 5620 5622 5624 5626 5628 5631 5635 5638 5641 5645 5649 5653 5656 5659 5660 5662
5705 5703 5699 5695 5691 5686 5680 5674 5668 5663 5658 5653 5648 5644 5639 5634 5630 5625 5622 5619 5616 5614 5612 5610 5608 5607 5607 5608 5609 5612 5614 5617 5620 5623 5627 5631 5636 5639 5643 5647 5651 5654 5656
5704 5701 5697 5694 5689 5683 5676 5670 5664 5659 5653 5648 5643 5638 5632 5628 5623 5617 5613 5609 5606 5603 5600 5598 5597 5596 5596 5596 5597 5598 5601 5604 5607 5610 5614 5619 5624 5629 5633 5637 5642 5646 5650
5704 5700 5696 5691 5685 5679 5673 5667 5662 5656 5651 5645 5639 5632 5627 5620 5614 5609 5605 5600 5596 5593 5590 5588 5586 5585 5585 5585 5585 5586 5589 5590 5593 5597 5600 5605 5611 5616 5621 5626 5631 5636 5642
5702 5697 5692 5686 5681 5676 5670 5665 5660 5654 5648 5641 5634 5627 5621 5614 5608 5602 5597 5592 5588 5584 5582 5579 5577 5576 5575 5575 5575 5575 5576 5577 5580 5583 5586 5591 5595 5601 5607 5614 5620 5626 5633
5698 5692 5687 5682 5678 5673 5667 5662 5656 5651 5645 5637 5629 5622 5615 5609 5602 5596 5590 5585 5581 5577 5574 5572 5570 5568 5566 5565 5564 5564 5564 5564 5566 5568 5571 5575 5580 5586 5593 5600 5607 5614 5621
5696 5692 5685 5679 5674 5669 5664 5658 5653 5647 5640 5632 5625 5617 5611 5603 5596 5589 5583 5579 5575 5572 5569 5565 5562 5559 5557 5555 5553 5551 5551 5550 5550 5552 5554 5558 5564 5572 5578 5586 5593 5601 5608
5695 5691 5686 5679 5672 5667 5661 5655 5649 5643 5635 5627 5620 5613 5606 5598 5590 5583 5577 5572 5568 5565 5561 5558 5555 5551 5550 5548 5545 5541 5538 5536 5535 5535 5537 5541 5547 5555 5563 5572 5581 5589 5596
5694 5689 5683 5675 5670 5664 5659 5652 5646 5639 5631 5623 5615 5608 5600 5592 5584 5578 5572 5567 5562 5558 5554 5550 5547 5543 5541 5537 5534 5531 5527 5524 5522 5521 5522 5526 5533 5539 5546 5556 5567 5577 5587
5691 5686 5679 5673 5667 5662 5656 5649 5642 5634 5626 5618 5610 5602 5594 5586 5579 5572 5566 5561 5556 5552 5548 5544 5540 5536 5534 5530 5526 5522 5517 5514 5511 5510 5510 5511 5516 5522 5528 5537 5549 5561 5573
5689 5682 5676 5671 5665 5658 5652 5644 5636 5628 5620 5613 5605 5597 5589 5581 5574 5567 5561 5556 5551 5547 5542 5539 5535 5531 5528 5524 5518 5513 5507 5503 5501 5499 5499 5500 5504 5509 5515 5522 5535 5548 5559
5687 5680 5674 5668 5661 5654 5647 5639 5630 5622 5615 5608 5600 5591 5583 5576 5569 5563 5557 5552 5547 5542 5538 5535 5531 5527 5522 5518 5512 5505 5498 5493 5490 5488 5488 5491 5494 5499 5504 5512 5523 5535 5547
5685 5679 5672 5662 5656 5650 5642 5633 5624 5616 5610 5602 5595 5587 5579 5571 5566 5560 5553 5548 5543 5539 5534 5531 5528 5523 5517 5512 5505 5499 5491 5487 5483 5481 5481 5483 5487 5491 5497 5506 5517 5530 5540
5683 5676 5666 5658 5651 5644 5636 5627 5618 5612 5605 5597 5589 5582 5574 5568 5563 5555 5550 5544 5539 5534 5531 5526 5522 5517 5511 5505 5500 5495 5489 5484 5479 5478 5478 5480 5484 5488 5495 5503 5514 5524 5532
5678 5671 5662 5653 5645 5638 5630 5622 5614 5607 5599 5591 5583 5577 5571 5564 5558 5552 5547 5541 5536 5531 5527 5522 5517 5511 5506 5500 5496 5491 5488 5484 5480 5479 5480 5482 5485 5489 5495 5504 5513 5521 5529
5674 5666 5658 5648 5640 5632 5625 5617 5610 5602 5594 5586 5579 5573 5568 5562 5556 5550 5544 5538 5534 5530 5525 5519 5514 5507 5502 5497 5492 5488 5485 5485 5483 5482 5483 5486 5489 5493 5499 5505 5512 5520 5528
5670 5662 5652 5644 5636 5628 5620 5613 5605 5598 5589 5581 5575 5570 5565 5559 5554 5549 5543 5538 5534 5529 5524 5519 5513 5506 5501 5497 5491 5486 5485 5484 5485 5485 5486 5489 5492 5496 5501 5506 5513 5520 5527
5665 5656 5648 5639 5631 5623 5615 5608 5601 5593 5585 5578 5572 5567 5563 5558 5552 5547 5545 5542 5536 5533 5528 5521 5514 5508 5503 5498 5493 5490 5488 5488 5489 5490 5492 5495 5497 5501 5506 5510 5514 5520 5527